Find Starlink 3709

NORAD ID: 52102 Int'l Des: 2022-029 Owner: SPXS Country: US Constellation: starlink operational
LEOCIRCULAR

当前视图

正在加载3D地球...

About Starlink 3709

Starlink 3709 (NORAD 52102) is a starlink constellation satellite (v1.5) launched Mar 19, 2022 by SPXS of US. It operates in LEO, CIRCULAR orbit with a mass of 297.00 kg.

即将过境

Passes for default location (London). Set your location on the main map for personalized predictions.

高度历史

Loading altitude history...

两行轨道根数

1 52102U 22029Q 26237.14619592 .00000351 00000-0 22017-4 0 9997
2 52102 53.1616 32.9282 0001212 91.3813 268.7329 15.33549204246354
Epoch: Aug 25, 2026 • Age: 12 hours

当前状态

高度 483.2 km
远地点 / 近地点 N/A
速度 7.62 km/s
星下点 -49.71°S, 119.49°E
发射日期 Mar 19, 2022
运行时间 4.4 years
类型 internet

技术详情

分类 Payload
质量 297.00 kg
干质量 275.00 kg
总质量 297.00 kg
长度 0.20 m
直径 2.80 m
跨度 9.00 m
形状 Box + pan
制造商 SPXS
平台类型 Starlink
阶段状态 In Orbit
所有者/国家 SPXS/US

Most Searched